| time (UTC) | temp C | wind direction | speed KPH | gust KPH | rain 1hr cm | rain 24hr cm | rain mn cm | humidity % | barometer mb |
| 20260506155640 | 30 | 334 | 4.8 | 4.8 | 0.00 | 0.00 | 0.00 | 45 | 1017.0 |
| 20260506155141 | 30 | 301 | 1.6 | 8.0 | 0.00 | 0.00 | 0.00 | 44 | 1017.0 |
| 20260506154640 | 30 | 184 | 8.0 | 11.3 | 0.00 | 0.00 | 0.00 | 46 | 1017.0 |
| 20260506154140 | 29 | 78 | 4.8 | 6.4 | 0.00 | 0.00 | 0.00 | 47 | 1017.0 |
| 20260506153640 | 28 | 334 | 0.0 | 12.9 | 0.00 | 0.00 | 0.00 | 48 | 1018.0 |
| 20260506153140 | 28 | 243 | 1.6 | 6.4 | 0.00 | 0.00 | 0.00 | 49 | 1018.0 |
| 20260506152640 | 28 | 276 | 6.4 | 8.0 | 0.00 | 0.00 | 0.00 | 49 | 1018.0 |
| 20260506152141 | 28 | 329 | 4.8 | 14.5 | 0.00 | 0.00 | 0.00 | 48 | 1017.0 |
| 20260506151641 | 28 | 221 | 3.2 | 6.4 | 0.00 | 0.00 | 0.00 | 50 | 1017.0 |
| 20260506151141 | 28 | 232 | 1.6 | 12.9 | 0.00 | 0.00 | 0.00 | 48 | 1017.0 |
| 20260506150641 | 28 | 44 | 6.4 | 9.7 | 0.00 | 0.00 | 0.00 | 47 | 1017.0 |
| 20260506150141 | 28 | 186 | 4.8 | 4.8 | 0.00 | 0.00 | 0.00 | 48 | 1017.0 |
| 20260506145641 | 29 | 307 | 12.9 | 12.9 | 0.00 | 0.00 | 0.00 | 46 | 1017.0 |
| 20260506145141 | 28 | 115 | 4.8 | 8.0 | 0.00 | 0.00 | 0.00 | 48 | 1017.0 |
| 20260506144640 | 28 | 37 | 1.6 | 9.7 | 0.00 | 0.00 | 0.00 | 49 | 1017.0 |
| 20260506144141 | 28 | 317 | 4.8 | 11.3 | 0.00 | 0.00 | 0.00 | 48 | 1017.0 |
| 20260506143641 | 28 | 269 | 11.3 | 17.7 | 0.00 | 0.00 | 0.00 | 47 | 1017.0 |
| 20260506143141 | 28 | 254 | 4.8 | 8.0 | 0.00 | 0.00 | 0.00 | 48 | 1017.0 |
| 20260506142642 | 28 | 242 | 1.6 | 6.4 | 0.00 | 0.00 | 0.00 | 51 | 1017.0 |
| 20260506142141 | 27 | 50 | 3.2 | 4.8 | 0.00 | 0.00 | 0.00 | 52 | 1017.0 |
| 20260506141640 | 27 | 188 | 3.2 | 12.9 | 0.00 | 0.00 | 0.00 | 51 | 1017.0 |
| 20260506141141 | 27 | 298 | 1.6 | 12.9 | 0.00 | 0.00 | 0.00 | 51 | 1017.0 |
| 20260506140641 | 27 | 316 | 6.4 | 12.9 | 0.00 | 0.00 | 0.00 | 50 | 1017.0 |
| 20260506140141 | 27 | 225 | 6.4 | 8.0 | 0.00 | 0.00 | 0.00 | 52 | 1017.0 |
| 20260506135640 | 26 | 201 | 4.8 | 4.8 | 0.00 | 0.00 | 0.00 | 54 | 1017.0 |
| 20260506135142 | 26 | 264 | 3.2 | 6.4 | 0.00 | 0.00 | 0.00 | 56 | 1017.0 |
| 20260506134641 | 26 | 224 | 0.0 | 3.2 | 0.00 | 0.00 | 0.00 | 57 | 1017.0 |
| 20260506134141 | 26 | 306 | 4.8 | 8.0 | 0.00 | 0.00 | 0.00 | 57 | 1017.0 |
| 20260506133642 | 26 | 193 | 1.6 | 6.4 | 0.00 | 0.00 | 0.00 | 57 | 1017.0 |
| 20260506133141 | 26 | 238 | 6.4 | 6.4 | 0.00 | 0.00 | 0.00 | 56 | 1017.0 |
| 20260506132641 | 26 | 257 | 3.2 | 3.2 | 0.00 | 0.00 | 0.00 | 59 | 1017.0 |
| 20260506132142 | 26 | 206 | 3.2 | 9.7 | 0.00 | 0.00 | 0.00 | 57 | 1017.0 |
| 20260506131641 | 26 | 209 | 1.6 | 4.8 | 0.00 | 0.00 | 0.00 | 58 | 1017.0 |
| 20260506131144 | 25 | 197 | 4.8 | 4.8 | 0.00 | 0.00 | 0.00 | 59 | 1017.0 |
| 20260506130640 | 25 | 258 | 3.2 | 3.2 | 0.00 | 0.00 | 0.00 | 61 | 1017.0 |
| 20260506130141 | 25 | 219 | 3.2 | 3.2 | 0.00 | 0.00 | 0.00 | 61 | 1017.0 |
| 20260506125640 | 24 | 271 | 4.8 | 4.8 | 0.00 | 0.00 | 0.00 | 60 | 1017.0 |
| 20260506125142 | 24 | 237 | 0.0 | 3.2 | 0.00 | 0.00 | 0.00 | 62 | 1017.0 |
| 20260506124641 | 23 | 312 | 0.0 | 6.4 | 0.00 | 0.00 | 0.00 | 63 | 1017.0 |
| 20260506124141 | 23 | 262 | 3.2 | 3.2 | 0.00 | 0.00 | 0.00 | 64 | 1017.0 |
| 20260506123641 | 22 | 159 | 0.0 | 3.2 | 0.00 | 0.00 | 0.00 | 65 | 1017.0 |
| 20260506123142 | 22 | 108 | 1.6 | 6.4 | 0.00 | 0.00 | 0.00 | 66 | 1016.0 |
| 20260506122641 | 22 | 273 | 0.0 | 3.2 | 0.00 | 0.00 | 0.00 | 66 | 1017.0 |
| 20260506122141 | 21 | 171 | 0.0 | 9.7 | 0.00 | 0.00 | 0.00 | 67 | 1016.0 |
| 20260506121640 | 21 | 185 | 0.0 | 4.8 | 0.00 | 0.00 | 0.00 | 69 | 1016.0 |
| 20260506121141 | 21 | 210 | 0.0 | 4.8 | 0.00 | 0.00 | 0.00 | 68 | 1016.0 |
| 20260506120640 | 20 | 281 | 0.0 | 3.2 | 0.00 | 0.00 | 0.00 | 69 | 1017.0 |
| 20260506120142 | 20 | 223 | 0.0 | 3.2 | 0.00 | 0.00 | 0.00 | 70 | 1016.0 |
| 20260506115640 | 20 | 180 | 0.0 | 4.8 | 0.00 | 0.00 | 0.00 | 71 | 1016.0 |
| 20260506115141 | 20 | 165 | 1.6 | 1.6 | 0.00 | 0.00 | 0.00 | 72 | 1017.0 |
| 20260506114641 | 19 | 175 | 0.0 | 3.2 | 0.00 | 0.00 | 0.00 | 74 | 1016.0 |
| 20260506114142 | 18 | 241 | 4.8 | 4.8 | 0.00 | 0.00 | 0.00 | 75 | 1016.0 |
| 20260506113642 | 18 | 233 | 3.2 | 4.8 | 0.00 | 0.00 | 0.00 | 76 | 1016.0 |
| 20260506113141 | 18 | 201 | 4.8 | 4.8 | 0.00 | 0.00 | 0.00 | 78 | 1016.0 |
| 20260506112640 | 17 | 206 | 3.2 | 3.2 | 0.00 | 0.00 | 0.00 | 79 | 1016.0 |
| 20260506112143 | 17 | 217 | 3.2 | 3.2 | 0.00 | 0.00 | 0.00 | 80 | 1016.0 |
| 20260506111640 | 17 | 227 | 3.2 | 3.2 | 0.00 | 0.00 | 0.00 | 81 | 1016.0 |
| 20260506111141 | 17 | 209 | 3.2 | 3.2 | 0.00 | 0.00 | 0.00 | 81 | 1016.0 |
| 20260506110640 | 16 | 203 | 3.2 | 3.2 | 0.00 | 0.00 | 0.00 | 81 | 1016.0 |
| 20260506110143 | 16 | 229 | 3.2 | 4.8 | 0.00 | 0.00 | 0.00 | 82 | 1016.0 |
| 20260506105643 | 16 | 205 | 3.2 | 3.2 | 0.00 | 0.00 | 0.00 | 82 | 1016.0 |
| 20260506105141 | 16 | 224 | 0.0 | 3.2 | 0.00 | 0.00 | 0.00 | 82 | 1016.0 |
| 20260506104640 | 16 | 219 | 1.6 | 3.2 | 0.00 | 0.00 | 0.00 | 82 | 1016.0 |
| 20260506104140 | 16 | 209 | 3.2 | 3.2 | 0.00 | 0.00 | 0.00 | 82 | 1016.0 |
| 20260506103642 | 16 | 196 | 3.2 | 3.2 | 0.00 | 0.00 | 0.00 | 82 | 1016.0 |
| 20260506103141 | 16 | 217 | 1.6 | 3.2 | 0.00 | 0.00 | 0.00 | 82 | 1016.0 |
| 20260506102643 | 16 | 209 | 0.0 | 0.0 | 0.00 | 0.00 | 0.00 | 82 | 1016.0 |
| 20260506102141 | 16 | 227 | 0.0 | 0.0 | 0.00 | 0.00 | 0.00 | 81 | 1016.0 |
| 20260506101641 | 16 | 221 | 0.0 | 0.0 | 0.00 | 0.00 | 0.00 | 81 | 1016.0 |
| 20260506101141 | 16 | 221 | 0.0 | 1.6 | 0.00 | 0.00 | 0.00 | 81 | 1015.0 |
| 20260506100640 | 16 | 220 | 0.0 | 0.0 | 0.00 | 0.00 | 0.00 | 81 | 1015.0 |
| 20260506100143 | 16 | 214 | 1.6 | 3.2 | 0.00 | 0.00 | 0.00 | 81 | 1015.0 |
| 20260506095641 | 16 | 210 | 3.2 | 3.2 | 0.00 | 0.00 | 0.00 | 81 | 1015.0 |
| 20260506095140 | 16 | 219 | 3.2 | 3.2 | 0.00 | 0.00 | 0.00 | 81 | 1015.0 |
| 20260506094640 | 16 | 222 | 0.0 | 1.6 | 0.00 | 0.00 | 0.00 | 81 | 1015.0 |
| 20260506094141 | 16 | 224 | 0.0 | 0.0 | 0.00 | 0.00 | 0.00 | 81 | 1016.0 |
| 20260506093640 | 16 | 220 | 0.0 | 0.0 | 0.00 | 0.00 | 0.00 | 81 | 1016.0 |
| 20260506093140 | 16 | 225 | 0.0 | 0.0 | 0.00 | 0.00 | 0.00 | 81 | 1016.0 |
| 20260506092641 | 16 | 200 | 0.0 | 0.0 | 0.00 | 0.00 | 0.00 | 81 | 1016.0 |
| 20260506092142 | 16 | 226 | 0.0 | 0.0 | 0.00 | 0.00 | 0.00 | 80 | 1016.0 |
| 20260506091640 | 17 | 237 | 0.0 | 0.0 | 0.00 | 0.00 | 0.00 | 80 | 1016.0 |
| 20260506091140 | 17 | 205 | 0.0 | 1.6 | 0.00 | 0.00 | 0.00 | 80 | 1016.0 |
| 20260506090643 | 17 | 218 | 0.0 | 0.0 | 0.00 | 0.00 | 0.00 | 80 | 1016.0 |
| 20260506090140 | 17 | 229 | 0.0 | 0.0 | 0.00 | 0.00 | 0.00 | 80 | 1016.0 |
| 20260506085640 | 17 | 231 | 0.0 | 4.8 | 0.00 | 0.00 | 0.00 | 80 | 1016.0 |
| 20260506085140 | 17 | 215 | 0.0 | 0.0 | 0.00 | 0.00 | 0.00 | 79 | 1016.0 |
| 20260506084642 | 17 | 230 | 0.0 | 0.0 | 0.00 | 0.00 | 0.00 | 79 | 1016.0 |
| 20260506084140 | 17 | 241 | 0.0 | 0.0 | 0.00 | 0.00 | 0.00 | 79 | 1016.0 |
| 20260506083641 | 17 | 227 | 0.0 | 0.0 | 0.00 | 0.00 | 0.00 | 79 | 1016.0 |
| 20260506083140 | 17 | 219 | 0.0 | 0.0 | 0.00 | 0.00 | 0.00 | 79 | 1016.0 |
| 20260506082642 | 17 | 221 | 0.0 | 0.0 | 0.00 | 0.00 | 0.00 | 79 | 1016.0 |
| 20260506082141 | 17 | 228 | 0.0 | 0.0 | 0.00 | 0.00 | 0.00 | 79 | 1016.0 |
| 20260506081641 | 17 | 213 | 0.0 | 0.0 | 0.00 | 0.00 | 0.00 | 79 | 1015.0 |
| 20260506081141 | 17 | 219 | 3.2 | 3.2 | 0.00 | 0.00 | 0.00 | 79 | 1015.0 |
| 20260506080640 | 17 | 202 | 3.2 | 4.8 | 0.00 | 0.00 | 0.00 | 79 | 1015.0 |
| 20260506080141 | 17 | 202 | 0.0 | 0.0 | 0.00 | 0.00 | 0.00 | 79 | 1015.0 |
| 20260506073159 | 17 | 277 | 1.6 | 4.8 | 0.00 | 0.00 | 0.00 | 80 | 1015.0 |
| 20260506072641 | 17 | 211 | 3.2 | 3.2 | 0.00 | 0.00 | 0.00 | 80 | 1015.0 |
| 20260506072140 | 17 | 237 | 1.6 | 3.2 | 0.00 | 0.00 | 0.00 | 80 | 1015.0 |
| 20260506071644 | 17 | 221 | 0.0 | 3.2 | 0.00 | 0.00 | 0.00 | 80 | 1015.0 |
| 20260506071141 | 17 | 235 | 3.2 | 3.2 | 0.00 | 0.00 | 0.00 | 80 | 1015.0 |
| 20260506070641 | 17 | 210 | 1.6 | 3.2 | 0.00 | 0.00 | 0.00 | 80 | 1015.0 |
| 20260506070148 | 17 | 188 | 1.6 | 4.8 | 0.00 | 0.00 | 0.00 | 80 | 1015.0 |
| 20260506062140 | 17 | 192 | 3.2 | 3.2 | 0.00 | 0.00 | 0.00 | 79 | 1016.0 |
| 20260506061641 | 17 | 223 | 1.6 | 1.6 | 0.00 | 0.00 | 0.00 | 79 | 1016.0 |
| 20260506061140 | 17 | 168 | 3.2 | 3.2 | 0.00 | 0.00 | 0.00 | 79 | 1016.0 |
| 20260506060640 | 17 | 202 | 0.0 | 1.6 | 0.00 | 0.00 | 0.00 | 78 | 1016.0 |
| 20260506060141 | 17 | 217 | 0.0 | 1.6 | 0.00 | 0.00 | 0.00 | 78 | 1016.0 |
| 20260506051141 | 18 | 224 | 0.0 | 3.2 | 0.00 | 0.00 | 0.00 | 75 | 1016.0 |
| 20260506050640 | 18 | 233 | 3.2 | 6.4 | 0.00 | 0.00 | 0.00 | 75 | 1016.0 |
| 20260506050140 | 18 | 182 | 0.0 | 9.7 | 0.00 | 0.00 | 0.00 | 74 | 1016.0 |
| 20260506044640 | 18 | 112 | 6.4 | 6.4 | 0.00 | 0.00 | 0.00 | 74 | 1016.0 |
| 20260506044140 | 18 | 179 | 0.0 | 3.2 | 0.00 | 0.00 | 0.00 | 73 | 1016.0 |
| 20260506043640 | 18 | 197 | 4.8 | 6.4 | 0.00 | 0.00 | 0.00 | 73 | 1016.0 |
| 20260506043140 | 19 | 178 | 1.6 | 3.2 | 0.00 | 0.00 | 0.00 | 72 | 1016.0 |
| 20260506042641 | 19 | 218 | 1.6 | 4.8 | 0.00 | 0.00 | 0.00 | 72 | 1016.0 |
| 20260506042140 | 19 | 182 | 3.2 | 4.8 | 0.00 | 0.00 | 0.00 | 71 | 1016.0 |
| 20260506041641 | 19 | 265 | 3.2 | 8.0 | 0.00 | 0.00 | 0.00 | 71 | 1016.0 |
| 20260506041140 | 19 | 197 | 3.2 | 8.0 | 0.00 | 0.00 | 0.00 | 71 | 1016.0 |
| 20260506040640 | 19 | 216 | 3.2 | 4.8 | 0.00 | 0.00 | 0.00 | 70 | 1016.0 |
| 20260506040140 | 19 | 194 | 1.6 | 6.4 | 0.00 | 0.00 | 0.00 | 70 | 1016.0 |
| 20260506035640 | 19 | 182 | 0.0 | 6.4 | 0.00 | 0.00 | 0.00 | 69 | 1016.0 |
| 20260506035140 | 20 | 176 | 3.2 | 4.8 | 0.00 | 0.00 | 0.00 | 69 | 1016.0 |
| 20260506034641 | 20 | 188 | 4.8 | 4.8 | 0.00 | 0.00 | 0.00 | 69 | 1016.0 |
| 20260506034140 | 20 | 217 | 1.6 | 3.2 | 0.00 | 0.00 | 0.00 | 68 | 1017.0 |
| 20260506033642 | 20 | 213 | 3.2 | 4.8 | 0.00 | 0.00 | 0.00 | 68 | 1017.0 |
| 20260506033141 | 20 | 207 | 4.8 | 6.4 | 0.00 | 0.00 | 0.00 | 68 | 1016.0 |
| 20260506032640 | 20 | 189 | 4.8 | 9.7 | 0.00 | 0.00 | 0.00 | 68 | 1016.0 |
| 20260506032140 | 20 | 168 | 9.7 | 9.7 | 0.00 | 0.00 | 0.00 | 68 | 1016.0 |
| 20260506031641 | 20 | 221 | 4.8 | 12.9 | 0.00 | 0.00 | 0.00 | 67 | 1016.0 |
| 20260506031140 | 20 | 191 | 6.4 | 8.0 | 0.00 | 0.00 | 0.00 | 67 | 1016.0 |
| 20260506030641 | 20 | 174 | 4.8 | 4.8 | 0.00 | 0.00 | 0.00 | 67 | 1016.0 |
| 20260506030140 | 20 | 163 | 3.2 | 4.8 | 0.00 | 0.00 | 0.00 | 66 | 1016.0 |
| 20260506025640 | 21 | 199 | 4.8 | 4.8 | 0.00 | 0.00 | 0.00 | 66 | 1016.0 |
| 20260506025140 | 21 | 188 | 8.0 | 9.7 | 0.00 | 0.00 | 0.00 | 65 | 1016.0 |
| 20260506024640 | 21 | 190 | 1.6 | 9.7 | 0.00 | 0.00 | 0.00 | 65 | 1016.0 |
| 20260506024140 | 21 | 134 | 6.4 | 9.7 | 0.00 | 0.00 | 0.00 | 65 | 1016.0 |
| 20260506023640 | 21 | 176 | 4.8 | 6.4 | 0.00 | 0.00 | 0.00 | 64 | 1016.0 |
| 20260506023140 | 21 | 172 | 3.2 | 9.7 | 0.00 | 0.00 | 0.00 | 64 | 1016.0 |
| 20260506022640 | 21 | 186 | 4.8 | 9.7 | 0.00 | 0.00 | 0.00 | 63 | 1016.0 |
| 20260506022141 | 21 | 171 | 1.6 | 9.7 | 0.00 | 0.00 | 0.00 | 63 | 1016.0 |
| 20260506021641 | 21 | 221 | 3.2 | 8.0 | 0.00 | 0.00 | 0.00 | 62 | 1016.0 |
| 20260506021141 | 21 | 208 | 3.2 | 6.4 | 0.00 | 0.00 | 0.00 | 62 | 1016.0 |
| 20260506020647 | 21 | 193 | 1.6 | 11.3 | 0.00 | 0.00 | 0.00 | 61 | 1016.0 |
| 20260506020140 | 22 | 200 | 9.7 | 9.7 | 0.00 | 0.00 | 0.00 | 61 | 1016.0 |
| 20260506015640 | 22 | 188 | 4.8 | 9.7 | 0.00 | 0.00 | 0.00 | 60 | 1016.0 |
| 20260506015141 | 22 | 191 | 3.2 | 9.7 | 0.00 | 0.00 | 0.00 | 60 | 1016.0 |
| 20260506014640 | 22 | 186 | 4.8 | 9.7 | 0.00 | 0.00 | 0.00 | 59 | 1016.0 |
| 20260506014140 | 22 | 166 | 4.8 | 14.5 | 0.00 | 0.00 | 0.00 | 59 | 1016.0 |
| 20260506013641 | 22 | 192 | 3.2 | 12.9 | 0.00 | 0.00 | 0.00 | 58 | 1016.0 |
| 20260506013146 | 22 | 198 | 6.4 | 12.9 | 0.00 | 0.00 | 0.00 | 57 | 1016.0 |
| 20260506012640 | 22 | 209 | 9.7 | 12.9 | 0.00 | 0.00 | 0.00 | 57 | 1016.0 |
| 20260506012140 | 23 | 138 | 3.2 | 11.3 | 0.00 | 0.00 | 0.00 | 56 | 1015.0 |
| 20260506011640 | 23 | 183 | 8.0 | 12.9 | 0.00 | 0.00 | 0.00 | 56 | 1015.0 |
| 20260506011140 | 23 | 177 | 6.4 | 6.4 | 0.00 | 0.00 | 0.00 | 56 | 1015.0 |
| 20260506010640 | 23 | 164 | 6.4 | 6.4 | 0.00 | 0.00 | 0.00 | 55 | 1015.0 |
| 20260506010141 | 23 | 165 | 6.4 | 6.4 | 0.00 | 0.00 | 0.00 | 55 | 1015.0 |
| 20260506005640 | 23 | 190 | 6.4 | 9.7 | 0.00 | 0.00 | 0.00 | 55 | 1015.0 |
| 20260506005140 | 23 | 166 | 12.9 | 12.9 | 0.00 | 0.00 | 0.00 | 55 | 1015.0 |
| 20260506004641 | 23 | 163 | 8.0 | 8.0 | 0.00 | 0.00 | 0.00 | 53 | 1015.0 |
| 20260506004140 | 23 | 137 | 4.8 | 4.8 | 0.00 | 0.00 | 0.00 | 51 | 1015.0 |
| 20260506003641 | 23 | 225 | 0.0 | 0.0 | 0.00 | 0.00 | 0.00 | 48 | 1015.0 |
| 20260506003140 | 23 | 228 | 0.0 | 0.0 | 0.00 | 0.00 | 0.00 | 47 | 1015.0 |
| 20260506002640 | 23 | 228 | 0.0 | 0.0 | 0.00 | 0.00 | 0.00 | 47 | 1015.0 |
| 20260506002140 | 24 | 226 | 0.0 | 0.0 | 0.00 | 0.00 | 0.00 | 46 | 1014.0 |
| 20260506001640 | 24 | 246 | 0.0 | 0.0 | 0.00 | 0.00 | 0.00 | 45 | 1014.0 |
| 20260506001140 | 25 | 217 | 0.0 | 0.0 | 0.00 | 0.00 | 0.00 | 44 | 1014.0 |
| 20260506000640 | 25 | 255 | 0.0 | 0.0 | 0.00 | 0.00 | 0.00 | 44 | 1014.0 |
| 20260506000148 | 25 | 218 | 0.0 | 0.0 | 0.00 | 0.00 | 0.00 | 43 | 1014.0 |
| 20260505235640 | 25 | 224 | 0.0 | 0.0 | 0.00 | 0.00 | 0.00 | 42 | 1014.0 |
| 20260505235140 | 26 | 210 | 1.6 | 1.6 | 0.00 | 0.00 | 0.00 | 42 | 1014.0 |
| 20260505234641 | 26 | 233 | 0.0 | 0.0 | 0.00 | 0.00 | 0.00 | 42 | 1014.0 |
| 20260505234140 | 26 | 235 | 0.0 | 0.0 | 0.00 | 0.00 | 0.00 | 41 | 1014.0 |
| 20260505233641 | 26 | 225 | 0.0 | 3.2 | 0.00 | 0.00 | 0.00 | 41 | 1014.0 |
| 20260505233141 | 26 | 184 | 1.6 | 3.2 | 0.00 | 0.00 | 0.00 | 40 | 1014.0 |
| 20260505232640 | 27 | 226 | 0.0 | 3.2 | 0.00 | 0.00 | 0.00 | 40 | 1014.0 |
| 20260505232140 | 27 | 268 | 1.6 | 3.2 | 0.00 | 0.00 | 0.00 | 39 | 1014.0 |
| 20260505231640 | 27 | 214 | 1.6 | 3.2 | 0.00 | 0.00 | 0.00 | 38 | 1014.0 |
| 20260505231142 | 27 | 218 | 3.2 | 4.8 | 0.00 | 0.00 | 0.00 | 38 | 1014.0 |
| 20260505230640 | 27 | 253 | 0.0 | 3.2 | 0.00 | 0.00 | 0.00 | 38 | 1014.0 |
| 20260505230140 | 27 | 227 | 0.0 | 0.0 | 0.00 | 0.00 | 0.00 | 38 | 1014.0 |
| 20260505225640 | 27 | 230 | 3.2 | 4.8 | 0.00 | 0.00 | 0.00 | 38 | 1014.0 |
| 20260505225140 | 28 | 192 | 1.6 | 1.6 | 0.00 | 0.00 | 0.00 | 38 | 1014.0 |
| 20260505224641 | 28 | 239 | 6.4 | 6.4 | 0.00 | 0.00 | 0.00 | 36 | 1014.0 |
| 20260505224140 | 28 | 204 | 0.0 | 4.8 | 0.00 | 0.00 | 0.00 | 36 | 1014.0 |
| 20260505223641 | 28 | 124 | 1.6 | 11.3 | 0.00 | 0.00 | 0.00 | 35 | 1015.0 |
| 20260505223140 | 29 | 251 | 1.6 | 6.4 | 0.00 | 0.00 | 0.00 | 35 | 1014.0 |
| 20260505222640 | 29 | 213 | 8.0 | 8.0 | 0.00 | 0.00 | 0.00 | 33 | 1014.0 |
| 20260505222140 | 29 | 228 | 1.6 | 4.8 | 0.00 | 0.00 | 0.00 | 34 | 1014.0 |
| 20260505221642 | 29 | 240 | 0.0 | 0.0 | 0.00 | 0.00 | 0.00 | 34 | 1015.0 |
| 20260505221140 | 30 | 195 | 3.2 | 3.2 | 0.00 | 0.00 | 0.00 | 33 | 1014.0 |
| 20260505220641 | 30 | 235 | 0.0 | 4.8 | 0.00 | 0.00 | 0.00 | 32 | 1014.0 |
| 20260505220141 | 30 | 222 | 3.2 | 3.2 | 0.00 | 0.00 | 0.00 | 33 | 1014.0 |
| 20260505215640 | 30 | 191 | 3.2 | 9.7 | 0.00 | 0.00 | 0.00 | 33 | 1014.0 |
| 20260505215141 | 30 | 314 | 3.2 | 14.5 | 0.00 | 0.00 | 0.00 | 30 | 1014.0 |
| 20260505214641 | 30 | 208 | 1.6 | 6.4 | 0.00 | 0.00 | 0.00 | 31 | 1014.0 |
| 20260505214140 | 30 | 209 | 3.2 | 4.8 | 0.00 | 0.00 | 0.00 | 31 | 1014.0 |
| 20260505213641 | 30 | 208 | 0.0 | 6.4 | 0.00 | 0.00 | 0.00 | 33 | 1014.0 |
| 20260505213140 | 30 | 168 | 1.6 | 6.4 | 0.00 | 0.00 | 0.00 | 33 | 1014.0 |
| 20260505212640 | 30 | 241 | 4.8 | 4.8 | 0.00 | 0.00 | 0.00 | 34 | 1014.0 |
| 20260505212140 | 30 | 215 | 3.2 | 6.4 | 0.00 | 0.00 | 0.00 | 32 | 1014.0 |
| 20260505211640 | 30 | 138 | 3.2 | 4.8 | 0.00 | 0.00 | 0.00 | 33 | 1014.0 |
| 20260505211140 | 30 | 191 | 9.7 | 9.7 | 0.00 | 0.00 | 0.00 | 32 | 1014.0 |
| 20260505210641 | 30 | 200 | 4.8 | 11.3 | 0.00 | 0.00 | 0.00 | 32 | 1014.0 |
| 20260505210141 | 30 | 224 | 3.2 | 12.9 | 0.00 | 0.00 | 0.00 | 33 | 1014.0 |
| 20260505205641 | 30 | 191 | 3.2 | 8.0 | 0.00 | 0.00 | 0.00 | 33 | 1015.0 |
| 20260505205148 | 30 | 315 | 4.8 | 4.8 | 0.00 | 0.00 | 0.00 | 31 | 1015.0 |
| 20260505204640 | 30 | 210 | 1.6 | 4.8 | 0.00 | 0.00 | 0.00 | 31 | 1015.0 |
| 20260505204140 | 30 | 335 | 8.0 | 8.0 | 0.00 | 0.00 | 0.00 | 32 | 1015.0 |
| 20260505203640 | 30 | 227 | 3.2 | 8.0 | 0.00 | 0.00 | 0.00 | 34 | 1015.0 |
| 20260505203140 | 28 | 143 | 6.4 | 11.3 | 0.00 | 0.00 | 0.00 | 35 | 1015.0 |
| 20260505202641 | 28 | 206 | 1.6 | 11.3 | 0.00 | 0.00 | 0.00 | 35 | 1015.0 |
| 20260505202140 | 28 | 328 | 1.6 | 1.6 | 0.00 | 0.00 | 0.00 | 35 | 1015.0 |
| 20260505201641 | 28 | 259 | 1.6 | 1.6 | 0.00 | 0.00 | 0.00 | 36 | 1015.0 |
| 20260505201141 | 29 | 276 | 3.2 | 8.0 | 0.00 | 0.00 | 0.00 | 35 | 1015.0 |
| 20260505200643 | 29 | 239 | 0.0 | 4.8 | 0.00 | 0.00 | 0.00 | 34 | 1015.0 |
| 20260505200141 | 30 | 233 | 0.0 | 8.0 | 0.00 | 0.00 | 0.00 | 33 | 1015.0 |
| 20260505195641 | 30 | 296 | 0.0 | 8.0 | 0.00 | 0.00 | 0.00 | 35 | 1015.0 |
| 20260505195143 | 30 | 188 | 6.4 | 11.3 | 0.00 | 0.00 | 0.00 | 34 | 1015.0 |
| 20260505194641 | 29 | 272 | 0.0 | 3.2 | 0.00 | 0.00 | 0.00 | 34 | 1015.0 |
| 20260505194140 | 29 | 209 | 3.2 | 4.8 | 0.00 | 0.00 | 0.00 | 35 | 1015.0 |
| 20260505193642 | 29 | 189 | 3.2 | 3.2 | 0.00 | 0.00 | 0.00 | 36 | 1016.0 |
| 20260505193141 | 30 | 197 | 3.2 | 8.0 | 0.00 | 0.00 | 0.00 | 35 | 1016.0 |
| 20260505192641 | 29 | 21 | 6.4 | 6.4 | 0.00 | 0.00 | 0.00 | 35 | 1016.0 |
| 20260505192141 | 29 | 128 | 12.9 | 12.9 | 0.00 | 0.00 | 0.00 | 35 | 1016.0 |
| 20260505191640 | 29 | 137 | 8.0 | 12.9 | 0.00 | 0.00 | 0.00 | 34 | 1016.0 |
| 20260505191141 | 29 | 202 | 8.0 | 14.5 | 0.00 | 0.00 | 0.00 | 35 | 1016.0 |
| 20260505190640 | 29 | 187 | 6.4 | 14.5 | 0.00 | 0.00 | 0.00 | 36 | 1016.0 |
| 20260505190140 | 30 | 175 | 9.7 | 9.7 | 0.00 | 0.00 | 0.00 | 34 | 1016.0 |
| 20260505185640 | 30 | 293 | 1.6 | 6.4 | 0.00 | 0.00 | 0.00 | 34 | 1016.0 |
| 20260505185140 | 30 | 188 | 8.0 | 8.0 | 0.00 | 0.00 | 0.00 | 33 | 1016.0 |
| 20260505184641 | 30 | 203 | 4.8 | 4.8 | 0.00 | 0.00 | 0.00 | 35 | 1017.0 |
| 20260505184140 | 29 | 341 | 0.0 | 1.6 | 0.00 | 0.00 | 0.00 | 34 | 1017.0 |
| 20260505183642 | 30 | 195 | 9.7 | 9.7 | 0.00 | 0.00 | 0.00 | 35 | 1017.0 |
| 20260505183140 | 29 | 175 | 6.4 | 8.0 | 0.00 | 0.00 | 0.00 | 34 | 1017.0 |
| 20260505182642 | 29 | 255 | 3.2 | 4.8 | 0.00 | 0.00 | 0.00 | 35 | 1017.0 |
| 20260505182141 | 29 | 211 | 3.2 | 3.2 | 0.00 | 0.00 | 0.00 | 35 | 1017.0 |
| 20260505181640 | 29 | 127 | 3.2 | 8.0 | 0.00 | 0.00 | 0.00 | 33 | 1017.0 |
| 20260505181141 | 30 | 268 | 4.8 | 11.3 | 0.00 | 0.00 | 0.00 | 33 | 1017.0 |
| 20260505180641 | 30 | 241 | 1.6 | 6.4 | 0.00 | 0.00 | 0.00 | 34 | 1017.0 |
| 20260505180141 | 30 | 210 | 9.7 | 11.3 | 0.00 | 0.00 | 0.00 | 35 | 1017.0 |
| 20260505175640 | 29 | 171 | 6.4 | 8.0 | 0.00 | 0.00 | 0.00 | 38 | 1017.0 |
| 20260505175140 | 30 | 185 | 3.2 | 9.7 | 0.00 | 0.00 | 0.00 | 35 | 1017.0 |
| 20260505174640 | 28 | 280 | 1.6 | 4.8 | 0.00 | 0.00 | 0.00 | 36 | 1017.0 |
| 20260505174140 | 28 | 210 | 1.6 | 6.4 | 0.00 | 0.00 | 0.00 | 40 | 1017.0 |
| 20260505173640 | 28 | 181 | 4.8 | 6.4 | 0.00 | 0.00 | 0.00 | 37 | 1017.0 |
| 20260505173141 | 28 | 169 | 6.4 | 8.0 | 0.00 | 0.00 | 0.00 | 39 | 1017.0 |
| 20260505172640 | 28 | 141 | 9.7 | 9.7 | 0.00 | 0.00 | 0.00 | 37 | 1017.0 |
| 20260505172141 | 28 | 174 | 4.8 | 14.5 | 0.00 | 0.00 | 0.00 | 38 | 1017.0 |
| 20260505171641 | 28 | 171 | 8.0 | 8.0 | 0.00 | 0.00 | 0.00 | 39 | 1017.0 |
| 20260505171140 | 28 | 213 | 1.6 | 12.9 | 0.00 | 0.00 | 0.00 | 41 | 1017.0 |
| 20260505170640 | 28 | 200 | 3.2 | 11.3 | 0.00 | 0.00 | 0.00 | 41 | 1017.0 |
| 20260505170141 | 28 | 160 | 4.8 | 8.0 | 0.00 | 0.00 | 0.00 | 40 | 1017.0 |
| 20260505165641 | 28 | 211 | 3.2 | 11.3 | 0.00 | 0.00 | 0.00 | 39 | 1017.0 |
| 20260505165140 | 27 | 154 | 8.0 | 8.0 | 0.00 | 0.00 | 0.00 | 43 | 1017.0 |
| 20260505164640 | 27 | 114 | 6.4 | 6.4 | 0.00 | 0.00 | 0.00 | 44 | 1017.0 |
| 20260505163749 | 26 | 222 | 6.4 | 6.4 | 0.00 | 0.00 | 0.00 | 43 | 1017.0 |
| 20260505163141 | 27 | 197 | 3.2 | 8.0 | 0.00 | 0.00 | 0.00 | 44 | 1018.0 |
| 20260505162641 | 27 | 247 | 6.4 | 8.0 | 0.00 | 0.00 | 0.00 | 48 | 1018.0 |
| 20260505162141 | 26 | 140 | 8.0 | 9.7 | 0.00 | 0.00 | 0.00 | 45 | 1018.0 |
| 20260505161641 | 27 | 219 | 6.4 | 6.4 | 0.00 | 0.00 | 0.00 | 46 | 1018.0 |
| 20260505161143 | 27 | 210 | 4.8 | 4.8 | 0.00 | 0.00 | 0.00 | 46 | 1018.0 |
| 20260505160641 | 27 | 128 | 3.2 | 6.4 | 0.00 | 0.00 | 0.00 | 48 | 1018.0 |
| 20260505160141 | 28 | 180 | 6.4 | 11.3 | 0.00 | 0.00 | 0.00 | 45 | 1018.0 |